Home > Weather > Kirkland Lake > Past weeks

Flag for Canada Weather for the Past 2 Weeks in Kirkland Lake, Ontario, Canada

Now
61 °F

Sunny.


Feels Like: 61 °F
Forecast: 32 / 54 °F
Wind: 5 mph from East

Location: Earlton

Current Time: May 2, 2016 at 3:31:04 PM

Latest Report: May 2, 2016 at 3:00 PM


Visibility: 9 mi

Pressure: 29.99 "Hg

Humidity: 27%

Dew Point: 27 °F

Location of Kirkland LakeLocation

Historic Weather in Kirkland Lake — Graph

°F

Kirkland Lake Temperature Yesterday

Maximum temperature yesterday: 59 °F (at 4:00 PM)
Minimum temperature yesterday: 34 °F (at 5:00 AM)
Average temperature yesterday: 48 °F

High & Low Weather Summary for the Past Weeks

 TemperatureHumidityPressure
High61 °F (May 2, 2:00 PM)100% (Apr 18, 12:58 PM)30.47 "Hg (Apr 18, 12:58 PM)
Low19 °F (Apr 27, 4:00 AM)24% (Apr 23, 6:00 PM)29.87 "Hg (Apr 21, 6:00 PM)
Average37 °F64%30.18 "Hg
* Reported Apr 17 2:00 PM — May 2 2:00 PM, Kirkland Lake, Weather by CustomWeather, © 2016

Note: Actual official high and low records may vary slightly from our data, if they occured in-between our weather recording intervals... More about our weather records

Advertising

Kirkland Lake Weather History for the Previous 24 Hours

Scroll right to see more
 ConditionsComfort  
Time TempWeatherWind HumidityBarometerVisibility
2:00 PM
Mon, May 2
61 °FSunny.7 mph27%30.01 "Hg9 mi
1:00 PM59 °FSunny.6 mph27%30.01 "Hg9 mi
12:00 PM59 °FSunny.12 mph27%30.03 "Hg9 mi
11:00 AM55 °FSunny.5 mph31%30.06 "Hg9 mi
10:00 AM52 °FSunny.5 mph38%30.07 "Hg9 mi
9:00 AM46 °FSunny.2 mph50%30.09 "Hg9 mi
8:00 AM41 °FSunny.6 mph61%30.09 "Hg9 mi
7:00 AM34 °FSunny.7 mph81%30.09 "Hg9 mi
6:00 AM32 °FClear.7 mph75%30.08 "Hg9 mi
5:00 AM32 °FClear.6 mph80%30.07 "Hg9 mi
4:00 AM36 °FClear.6 mph70%30.07 "Hg9 mi
3:00 AM36 °FClear.6 mph70%30.08 "Hg9 mi
2:00 AM41 °FClear.7 mph57%30.09 "Hg9 mi
1:00 AM43 °FPassing clouds.5 mph53%30.09 "Hg9 mi
12:00 AM46 °FOvercast.2 mph50%30.10 "Hg9 mi
11:00 PM
Sun, May 1
46 °FOvercast.6 mph50%30.11 "Hg9 mi
10:00 PM48 °FOvercast.6 mph46%30.11 "Hg9 mi
9:00 PM50 °FScattered clouds.6 mph43%30.11 "Hg9 mi
8:00 PM54 °FOvercast.9 mph38%30.11 "Hg9 mi
7:00 PM59 °FSunny.13 mph29%30.10 "Hg9 mi
6:00 PM59 °FPassing clouds.10 mph29%30.11 "Hg9 mi
5:55 PM59 °FScattered clouds.12 mph29%30.11 "Hg9 mi
5:00 PM59 °FPartly sunny.9 mph27%30.11 "Hg9 mi
4:00 PM59 °FPassing clouds.7 mph29%30.12 "Hg9 mi
3:00 PM57 °FPassing clouds.5 mph29%30.14 "Hg9 mi
Weather by CustomWeather, © 2016

See weather overviewHow to use our weather pages